TimeAKDT,TemperatureF,Dew PointF,Humidity,Sea Level PressureIn,VisibilityMPH,Wind Direction,Wind SpeedMPH,Gust SpeedMPH,PrecipitationIn,Events,Conditions,WindDirDegrees,DateUTC
12:53 AM,34.0,19.9,56,30.10,10.0,East,4.6,-,N/A,,Clear,90,2012-10-24 08:53:00
1:53 AM,33.1,21.0,61,30.10,10.0,East,5.8,-,N/A,,Clear,90,2012-10-24 09:53:00
2:53 AM,35.1,19.9,54,30.10,10.0,East,5.8,-,N/A,,Clear,90,2012-10-24 10:53:00
3:53 AM,35.1,19.0,52,30.10,10.0,ESE,4.6,-,N/A,,Clear,110,2012-10-24 11:53:00
4:53 AM,35.1,19.0,52,30.11,10.0,East,4.6,-,N/A,,Clear,90,2012-10-24 12:53:00
5:53 AM,35.1,18.0,50,30.12,10.0,East,4.6,-,N/A,,Clear,100,2012-10-24 13:53:00
6:53 AM,35.1,18.0,50,30.13,10.0,East,3.5,-,N/A,,Clear,100,2012-10-24 14:53:00
7:53 AM,35.1,18.0,50,30.14,10.0,East,3.5,-,N/A,,Clear,80,2012-10-24 15:53:00
8:53 AM,36.0,18.0,48,30.15,10.0,East,4.6,-,N/A,,Partly Cloudy,100,2012-10-24 16:53:00
9:53 AM,37.9,18.0,45,30.16,10.0,ESE,5.8,-,N/A,,Partly Cloudy,120,2012-10-24 17:53:00
10:53 AM,39.9,17.1,40,30.17,10.0,East,5.8,-,N/A,,Partly Cloudy,100,2012-10-24 18:53:00
11:53 AM,41.0,18.0,40,30.17,10.0,ESE,6.9,-,N/A,,Scattered Clouds,110,2012-10-24 19:53:00
12:53 PM,42.1,17.1,37,30.19,10.0,East,8.1,-,N/A,,Clear,100,2012-10-24 20:53:00
1:53 PM,43.0,18.0,37,30.20,10.0,ESE,10.4,-,N/A,,Clear,110,2012-10-24 21:53:00
2:53 PM,42.1,19.0,40,30.20,10.0,ESE,12.7,-,N/A,,Clear,110,2012-10-24 22:53:00
3:53 PM,42.1,19.0,40,30.22,10.0,ESE,12.7,-,N/A,,Clear,110,2012-10-24 23:53:00
4:53 PM,39.9,16.0,38,30.23,10.0,East,8.1,-,N/A,,Clear,90,2012-10-25 00:53:00
5:53 PM,37.9,16.0,41,30.25,10.0,East,8.1,-,N/A,,Clear,90,2012-10-25 01:53:00
6:53 PM,37.0,19.9,50,30.27,10.0,ESE,6.9,-,N/A,,Clear,110,2012-10-25 02:53:00
7:53 PM,37.0,17.1,44,30.29,10.0,ENE,3.5,-,N/A,,Clear,70,2012-10-25 03:53:00
8:53 PM,36.0,17.1,46,30.30,10.0,East,6.9,-,N/A,,Clear,100,2012-10-25 04:53:00
9:53 PM,36.0,16.0,44,30.31,10.0,East,3.5,-,N/A,,Clear,90,2012-10-25 05:53:00
10:53 PM,37.0,17.1,44,30.32,10.0,East,5.8,-,N/A,,Mostly Cloudy,100,2012-10-25 06:53:00
11:53 PM,35.1,19.0,52,30.34,10.0,East,4.6,-,N/A,,Overcast,100,2012-10-25 07:53:00